• In Uzbekistan
  • List of Countries
  • For 7 days
  • Water Temperature
  • Weather Map
  • Weather Widgets
  • user-avatar
    Login

    Hourly Weather Neuquén

    Today, 22 November, Friday

    Time Temperature Precipitation Wind Pressure Humidity
    00:00 +17°C° 0 mm 5 mps 735 mmHg 21%
    01:00 +15°C° 0 mm 4 mps 736 mmHg 22%
    02:00 +15°C° 0 mm 4 mps 736 mmHg 24%
    03:00 +14°C° 0 mm 3 mps 736 mmHg 26%
    04:00 +13°C° 0 mm 3 mps 736 mmHg 28%
    05:00 +15°C° 0 mm 4 mps 737 mmHg 24%
    06:00 +17°C° 0 mm 5 mps 737 mmHg 21%
    07:00 +20°C° 0 mm 7 mps 738 mmHg 17%
    08:00 +22°C° 0 mm 8 mps 738 mmHg 15%
    09:00 +24°C° 0 mm 8 mps 737 mmHg 13%
    10:00 +27°C° 0 mm 9 mps 737 mmHg 10%
    11:00 +28°C° 0 mm 9 mps 737 mmHg 10%
    12:00 +29°C° 0 mm 9 mps 736 mmHg 10%
    13:00 +32°C° 0 mm 9 mps 735 mmHg 10%
    14:00 +32°C° 0 mm 9 mps 735 mmHg 10%
    15:00 +32°C° 0 mm 9 mps 734 mmHg 10%
    16:00 +32°C° 0 mm 9 mps 734 mmHg 10%
    17:00 +31°C° 0 mm 8 mps 734 mmHg 10%
    18:00 +29°C° 0 mm 7 mps 734 mmHg 10%
    19:00 +28°C° 0 mm 6 mps 734 mmHg 11%
    20:00 +26°C° 0 mm 7 mps 734 mmHg 12%
    21:00 +24°C° 0 mm 8 mps 734 mmHg 14%
    22:00 +23°C° 0 mm 9 mps 734 mmHg 15%
    23:00 +23°C° 0 mm 8 mps 734 mmHg 17%

    Tomorrow, 23 November, Saturday

    Time Temperature Precipitation Wind Pressure Humidity
    00:00 +22°C° 0 mm 8 mps 734 mmHg 18%
    01:00 +22°C° 0 mm 8 mps 733 mmHg 19%
    02:00 +21°C° 0 mm 8 mps 733 mmHg 21%
    03:00 +21°C° 0 mm 9 mps 733 mmHg 22%
    04:00 +21°C° 0 mm 9 mps 733 mmHg 24%
    05:00 +22°C° 0.1 mm 10 mps 733 mmHg 24%
    06:00 +23°C° 0.1 mm 11 mps 733 mmHg 25%
    07:00 +23°C° 0.1 mm 12 mps 734 mmHg 25%
    08:00 +26°C° 0 mm 13 mps 733 mmHg 25%
    09:00 +27°C° 0 mm 14 mps 733 mmHg 24%
    10:00 +29°C° 0 mm 14 mps 732 mmHg 24%
    11:00 +29°C° 0 mm 14 mps 732 mmHg 25%
    12:00 +29°C° 0 mm 13 mps 731 mmHg 26%
    13:00 +29°C° 0 mm 13 mps 730 mmHg 27%
    14:00 +29°C° 0 mm 12 mps 730 mmHg 31%
    15:00 +28°C° 0 mm 12 mps 729 mmHg 36%
    16:00 +27°C° 0 mm 11 mps 728 mmHg 40%
    17:00 +26°C° 0 mm 10 mps 729 mmHg 46%
    18:00 +24°C° 0 mm 8 mps 729 mmHg 53%
    19:00 +23°C° 0 mm 7 mps 729 mmHg 59%
    20:00 +22°C° 0.2 mm 7 mps 730 mmHg 60%
    21:00 +21°C° 0.2 mm 6 mps 730 mmHg 62%
    22:00 +20°C° 0.2 mm 6 mps 730 mmHg 63%
    23:00 +20°C° 0.1 mm 5 mps 730 mmHg 62%

    Day after tomorrow, 24 November, Sunday

    Time Temperature Precipitation Wind Pressure Humidity
    00:00 +19°C° 0.1 mm 5 mps 729 mmHg 62%
    01:00 +19°C° 0.1 mm 5 mps 729 mmHg 61%
    02:00 +18°C° 0 mm 4 mps 729 mmHg 59%
    03:00 +18°C° 0 mm 3 mps 729 mmHg 58%
    04:00 +17°C° 0 mm 2 mps 729 mmHg 56%
    05:00 +18°C° 0.1 mm 3 mps 729 mmHg 53%
    06:00 +20°C° 0.1 mm 3 mps 729 mmHg 50%
    07:00 +21°C° 0.1 mm 4 mps 728 mmHg 47%
    08:00 +22°C° 0 mm 3 mps 728 mmHg 44%
    09:00 +25°C° 0 mm 3 mps 728 mmHg 41%
    10:00 +26°C° 0 mm 2 mps 728 mmHg 39%
    11:00 +27°C° 0 mm 2 mps 728 mmHg 36%
    12:00 +28°C° 0 mm 2 mps 727 mmHg 33%
    13:00 +29°C° 0 mm 2 mps 727 mmHg 29%
    14:00 +28°C° 0 mm 2 mps 727 mmHg 29%
    15:00 +28°C° 0 mm 2 mps 726 mmHg 28%
    16:00 +28°C° 0 mm 2 mps 726 mmHg 27%
    17:00 +26°C° 0.1 mm 3 mps 727 mmHg 30%
    18:00 +25°C° 0.1 mm 4 mps 727 mmHg 34%
    19:00 +22°C° 0.1 mm 5 mps 728 mmHg 37%
    20:00 +21°C° 0 mm 6 mps 728 mmHg 37%
    21:00 +20°C° 0 mm 7 mps 729 mmHg 38%
    22:00 +17°C° 0 mm 7 mps 729 mmHg 38%
    23:00 +17°C° 0 mm 6 mps 730 mmHg 40%

    25 November, Monday

    Time Temperature Precipitation Wind Pressure Humidity
    00:00 +16°C° 0 mm 5 mps 730 mmHg 41%
    01:00 +15°C° 0 mm 4 mps 730 mmHg 43%
    02:00 +14°C° 0 mm 4 mps 730 mmHg 44%
    03:00 +14°C° 0 mm 4 mps 730 mmHg 46%
    04:00 +13°C° 0 mm 4 mps 731 mmHg 47%
    05:00 +13°C° 0 mm 6 mps 731 mmHg 42%
    06:00 +13°C° 0 mm 8 mps 731 mmHg 38%
    07:00 +14°C° 0 mm 10 mps 731 mmHg 33%
    08:00 +16°C° 0 mm 10 mps 732 mmHg 30%
    09:00 +18°C° 0 mm 10 mps 732 mmHg 26%
    10:00 +19°C° 0 mm 10 mps 732 mmHg 23%
    11:00 +21°C° 0 mm 10 mps 731 mmHg 20%
    12:00 +22°C° 0 mm 10 mps 731 mmHg 18%
    13:00 +23°C° 0 mm 11 mps 731 mmHg 15%
    14:00 +23°C° 0 mm 11 mps 730 mmHg 15%
    15:00 +22°C° 0 mm 12 mps 730 mmHg 15%
    16:00 +22°C° 0 mm 12 mps 730 mmHg 15%
    17:00 +19°C° 0 mm 12 mps 731 mmHg 18%
    18:00 +17°C° 0 mm 11 mps 731 mmHg 22%
    19:00 +16°C° 0 mm 10 mps 731 mmHg 25%
    20:00 +14°C° 0 mm 10 mps 732 mmHg 27%
    21:00 +13°C° 0 mm 10 mps 733 mmHg 29%
    22:00 +12°C° 0 mm 10 mps 733 mmHg 31%
    23:00 +11°C° 0 mm 9 mps 733 mmHg 35%

    26 November, Tuesday

    Time Temperature Precipitation Wind Pressure Humidity
    00:00 +11°C° 0 mm 8 mps 733 mmHg 39%
    01:00 +10°C° 0 mm 8 mps 733 mmHg 42%
    02:00 +9°C° 0 mm 6 mps 733 mmHg 45%
    03:00 +9°C° 0 mm 5 mps 734 mmHg 47%
    04:00 +8°C° 0 mm 4 mps 734 mmHg 49%
    05:00 +10°C° 0 mm 6 mps 734 mmHg 45%
    06:00 +11°C° 0 mm 7 mps 734 mmHg 40%
    07:00 +12°C° 0 mm 9 mps 734 mmHg 36%
    08:00 +15°C° 0 mm 8 mps 734 mmHg 30%
    09:00 +17°C° 0 mm 8 mps 734 mmHg 25%
    10:00 +18°C° 0 mm 8 mps 733 mmHg 19%
    11:00 +20°C° 0 mm 8 mps 732 mmHg 17%
    12:00 +22°C° 0 mm 7 mps 731 mmHg 14%
    13:00 +23°C° 0 mm 7 mps 731 mmHg 11%
    14:00 +23°C° 0 mm 8 mps 730 mmHg 12%
    15:00 +23°C° 0 mm 8 mps 730 mmHg 12%
    16:00 +23°C° 0 mm 9 mps 729 mmHg 13%
    17:00 +22°C° 0 mm 10 mps 730 mmHg 17%
    18:00 +19°C° 0 mm 11 mps 731 mmHg 22%
    19:00 +17°C° 0 mm 12 mps 731 mmHg 26%
    20:00 +16°C° 0 mm 11 mps 731 mmHg 30%
    21:00 +14°C° 0 mm 11 mps 732 mmHg 34%
    22:00 +13°C° 0 mm 10 mps 732 mmHg 37%
    23:00 +12°C° 0 mm 9 mps 732 mmHg 39%

    27 November, Wednesday

    Time Temperature Precipitation Wind Pressure Humidity
    00:00 +12°C° 0 mm 9 mps 732 mmHg 40%
    01:00 +12°C° 0 mm 8 mps 732 mmHg 42%
    02:00 +11°C° 0 mm 8 mps 732 mmHg 42%
    03:00 +11°C° 0 mm 9 mps 733 mmHg 42%
    04:00 +11°C° 0 mm 9 mps 733 mmHg 43%
    05:00 +12°C° 0 mm 10 mps 733 mmHg 39%
    06:00 +13°C° 0 mm 10 mps 734 mmHg 36%
    07:00 +14°C° 0 mm 11 mps 734 mmHg 33%
    08:00 +16°C° 0 mm 10 mps 734 mmHg 30%
    09:00 +17°C° 0 mm 10 mps 734 mmHg 26%
    10:00 +18°C° 0 mm 9 mps 734 mmHg 23%
    11:00 +19°C° 0 mm 9 mps 733 mmHg 20%
    12:00 +21°C° 0 mm 9 mps 733 mmHg 17%
    13:00 +22°C° 0 mm 8 mps 732 mmHg 14%
    14:00 +23°C° 0 mm 8 mps 732 mmHg 14%
    15:00 +23°C° 0 mm 8 mps 731 mmHg 13%
    16:00 +23°C° 0 mm 9 mps 731 mmHg 13%
    17:00 +22°C° 0 mm 8 mps 731 mmHg 15%
    18:00 +21°C° 0 mm 8 mps 731 mmHg 17%
    19:00 +18°C° 0 mm 7 mps 732 mmHg 19%
    20:00 +18°C° 0 mm 8 mps 732 mmHg 23%
    21:00 +17°C° 0 mm 8 mps 732 mmHg 27%
    22:00 +16°C° 0 mm 8 mps 732 mmHg 31%
    23:00 +15°C° 0 mm 8 mps 732 mmHg 33%
    Show more